ES'HAIL 1

Last updated on Thu Nov 21 2024 00:02:42 GMT+0000 (Coordinated Universal Time)

1 39233U 13044A 24324.15674279 .00000146 00000+0 00000+0 0 9997 2 39233 0.0510 350.4113 0002642 261.9204 248.3085 1.00275357 40861
UTC large
Height (km)
Speed (km/s)
/
Latitude / Longitude
Inclination (degrees)
Orbital Period (minutes)
Azimuth
Elevation
Range (km)
Doppler Factor

Next 0 passes for location: London (51.5072 / 0.1276)

Sorry there are no passes over London.